Tracking 28565 objects as of 3-Mar-2024
HD Live streaming from Space Station
objects crossing your sky now

COSMOS 1382 DEB

Track COSMOS 1382 DEB now!


NORAD ID: 27903
Int'l Code: 1982-064E
Perigee: 3,287.5 km
Apogee: 37,887.4 km
Inclination: 67.4 °
Period: 734.2 minutes
Semi major axis: 26958 km
RCS: 0.3202 m2 (medium)
Launch date: June 25, 1982
Source: Commonwealth of Independent States (former USSR) (CIS)
Launch site: PLESETSK MISSILE AND SPACE COMPLEX (PKMTR)

Note: This is SATELLITE DEBRIS
Your satellite tracking list
Your tracking list is empty




NASA's NSSDC Master Catalog

Two Line Element Set (TLE):
1 27903U 82064E   24062.02748170 -.00000600  00000-0  00000-0 0  9991
2 27903  67.3918 326.7393 6417275 359.7837   0.1166  1.96137346154480
Source of the keplerian elements: AFSPC